Flag for United Kingdom Weather past 2 weeks in St Helens, England, United Kingdom

Now
43 °F

Passing clouds.


Feels Like: 33 °F
Forecast: 39 / 46 °F
Wind: 23 mph from West

Location: Liverpool Airport

Current Time: Mar 1, 2015 at 9:11:12 AM

Latest Report: Mar 1, 2015 at 7:50 AM


Visibility: N/A

Pressure: 29.39 "Hg

Humidity: 71%

Dew point: 34 °F

Location of St HelensLocation

Historic Weather in St Helens — Graph

°F

St Helens temperature yesterday

Maximum temperature yesterday: 52 °F (at 11:50 AM)
Minimum temperature yesterday: 43 °F (at 4:20 AM)
Average temperature yesterday: 48 °F

Past Weeks' High & Low Weather Summary

 TemperatureHumidityPressure
High52 °F (Feb 18, 1:20 PM)100% (Feb 15, 5:20 AM)30.66 "Hg (Feb 15, 5:20 AM)
Low34 °F (Feb 22, 7:20 AM)57% (Feb 23, 12:20 PM)29.00 "Hg (Feb 23, 5:50 PM)
Average43 °F83%29.80 "Hg
* Reported Feb 14 7:20 AM — Mar 1 7:50 AM, St Helens, Weather by CustomWeather, © 2015

Note: Actual official high and low records may vary slightly from our data, if they occured in-between our weather recording intervals... More about our weather records

Advertising

St Helens weather history for previous 24 hours

 ConditionsComfort  
Time TempWeatherWind HumidityBarometerVisibility
7:50 AM
Sun, Mar 1
43 °FPassing clouds.23 mph71%29.39 "HgN/A
7:20 AM43 °FPassing clouds.24 mph71%29.39 "HgN/A
6:50 AM43 °FPassing clouds.28 mph71%29.36 "HgN/A
6:20 AM45 °FPassing clouds.28 mph71%29.36 "HgN/A
5:50 AM45 °FPassing clouds.32 mph66%29.36 "HgN/A
5:20 AM45 °FPassing clouds.28 mph66%29.36 "HgN/A
4:50 AM45 °FClear.25 mph66%29.33 "Hg10 mi
4:20 AM46 °FClear.29 mph66%29.33 "Hg10 mi
3:20 AM45 °FPassing clouds.25 mph71%29.30 "HgN/A
2:50 AM45 °FPassing clouds.24 mph66%29.33 "HgN/A
2:20 AM46 °FPassing clouds.30 mph66%29.33 "HgN/A
1:50 AM46 °FPassing clouds.29 mph66%29.30 "HgN/A
1:20 AM48 °FPassing clouds.26 mph66%29.30 "HgN/A
12:50 AM48 °FPassing clouds.31 mph66%29.30 "HgN/A
12:20 AM46 °FScattered showers. Passing clouds.21 mph76%29.27 "HgN/A
11:50 PM
Sat, Feb 28
48 °FSprinkles. Passing clouds.24 mph76%29.27 "HgN/A
11:20 PM50 °FPassing clouds.18 mph67%29.24 "HgN/A
10:50 PM48 °FPassing clouds.20 mph76%29.24 "HgN/A
10:20 PM50 °FPassing clouds.22 mph82%29.24 "HgN/A
9:50 PM52 °FSprinkles. Passing clouds.25 mph88%29.21 "HgN/A
9:20 PM52 °FPassing clouds.22 mph82%29.21 "HgN/A
8:50 PM50 °FPassing clouds.13 mph94%29.24 "HgN/A
8:20 PM48 °FPassing clouds.17 mph94%29.24 "HgN/A
7:50 PM48 °FPassing clouds.23 mph87%29.24 "HgN/A
7:20 PM48 °FScattered showers. Passing clouds.25 mph82%29.24 "HgN/A
6:50 PM48 °FScattered showers. Passing clouds.20 mph82%29.24 "HgN/A
6:20 PM48 °FScattered showers. Passing clouds.16 mph82%29.30 "HgN/A
5:50 PM48 °FScattered showers. Passing clouds.16 mph82%29.33 "HgN/A
5:20 PM48 °FRain showers. Scattered clouds.26 mph82%29.33 "Hg6 mi
4:50 PM50 °FPartly sunny.15 mph76%29.36 "HgN/A
4:20 PM50 °FScattered clouds.10 mph76%29.42 "HgN/A
3:50 PM50 °FScattered clouds.18 mph82%29.45 "HgN/A
3:20 PM50 °FPartly sunny.22 mph76%29.47 "HgN/A
2:50 PM52 °FPartly sunny.17 mph72%29.47 "HgN/A
2:20 PM50 °FPartly sunny.15 mph76%29.50 "HgN/A
1:50 PM50 °FPartly sunny.15 mph76%29.56 "HgN/A
1:20 PM52 °FPartly sunny.17 mph72%29.56 "HgN/A
12:50 PM52 °FPartly sunny.12 mph72%29.59 "HgN/A
12:20 PM52 °FPartly sunny.13 mph77%29.59 "HgN/A
11:50 AM52 °FPartly sunny.12 mph72%29.62 "HgN/A
11:20 AM50 °FScattered clouds.14 mph82%29.62 "HgN/A
10:50 AM50 °FScattered clouds.13 mph76%29.62 "HgN/A
10:20 AM50 °FScattered clouds.9 mph82%29.65 "HgN/A
9:50 AM48 °FScattered clouds.9 mph87%29.65 "HgN/A
9:20 AM48 °FScattered clouds.7 mph87%29.65 "HgN/A
Weather by CustomWeather, © 2015

See weather overviewHow to use our weather pages